Weather reports worldwide

Advertisment
Milano/Malpensa, Italy (16066): temperature & dewpoint: 17.03.2019 10:00:00 - 23.03.2019 10:00:00 (CET)Milano/Malpensa, Italy (16066): wind speed: 17.03.2019 10:00:00 - 23.03.2019 10:00:00 (CET)Milano/Malpensa, Italy (16066): wind direction: 17.03.2019 10:00:00 - 23.03.2019 10:00:00 (CET)Milano/Malpensa, Italy (16066): reduced air pressure: 17.03.2019 10:00:00 - 23.03.2019 10:00:00 (CET)Milano/Malpensa, Italy (16066): visibility: 17.03.2019 10:00:00 - 23.03.2019 10:00:00 (CET)Milano/Malpensa, Italy (16066): precipitation: 17.03.2019 10:00:00 - 23.03.2019 10:00:00 (CET)
Date & Time tt [°C] td [°C] ff [km/h] ff [kn] dd ppp [hPa] vv [km] rr [mm]
23.03.2019 10:00:00 15,8 0,0 8 4 WNW 1027,0 10 0,0
23.03.2019 09:00:00 12,0 0,0 11 6 N - 10 -
23.03.2019 08:00:00 8,0 1,0 13 7 N - 10 -
23.03.2019 07:00:00 4,8 -0,3 13 7 N 1026,6 30 -
23.03.2019 06:00:00 4,0 -1,0 15 8 N - 10 -
23.03.2019 05:00:00 4,0 -1,0 15 8 N - 10 -
23.03.2019 04:00:00 3,6 -1,6 13 7 N 1026,9 10 0,0
23.03.2019 03:00:00 4,0 -2,0 13 7 N - 10 -
23.03.2019 02:00:00 3,0 -2,0 13 7 N - 10 -
23.03.2019 01:00:00 3,7 -1,6 8 4 NNE 1027,7 10 -
23.03.2019 00:00:00 5,0 -1,0 9 5 N - 10 -
22.03.2019 23:00:00 5,0 -2,0 8 4 NNE - 10 -
22.03.2019 22:00:00 6,4 -2,4 4 2 - 1027,8 10 0,0
22.03.2019 21:00:00 10,0 -3,0 4 2 - - 10 -
22.03.2019 20:00:00 11,0 -3,0 2 1 - - 10 -
22.03.2019 19:00:00 16,9 -3,4 8 4 SW 1027,2 10 -
22.03.2019 18:00:00 19,0 -4,0 9 5 W - 10 -
22.03.2019 17:00:00 19,0 -2,0 9 5 SW - 10 -
22.03.2019 16:00:00 19,2 -2,6 11 6 WSW 1028,0 10 0,0
22.03.2019 15:00:00 19,0 -2,0 9 5 SW - 10 -
22.03.2019 14:00:00 19,0 -1,0 8 4 WSW - 10 -
22.03.2019 13:00:00 18,0 -1,5 5 3 - 1030,1 10 -
22.03.2019 12:00:00 17,0 -1,0 5 3 - - 10 -
22.03.2019 11:00:00 15,0 -1,0 5 3 - - 10 -
22.03.2019 10:00:00 12,7 0,2 5 3 WNW 1031,6 10 0,0
22.03.2019 09:00:00 10,0 1,0 9 5 N - 10 -
22.03.2019 08:00:00 6,0 1,0 11 6 N - 10 -
22.03.2019 07:00:00 1,7 -1,0 13 7 N 1031,1 10 -
22.03.2019 06:00:00 2,0 -2,0 9 5 N - 10 -
22.03.2019 05:00:00 1,0 -3,0 11 6 N - 10 -
22.03.2019 04:00:00 0,4 -3,0 9 5 N 1031,1 10 0,0
22.03.2019 03:00:00 3,0 -2,0 9 5 NNE - 10 -
22.03.2019 02:00:00 2,0 -3,0 9 5 N - 10 -
22.03.2019 01:00:00 1,1 -2,8 9 5 N 1031,8 10 -
22.03.2019 00:00:00 3,0 -2,0 11 6 N - 10 -
21.03.2019 23:00:00 5,0 -2,0 4 2 NE - 10 -
21.03.2019 22:00:00 3,9 -3,3 5 3 NNE 1031,5 10 0,0
21.03.2019 21:00:00 8,0 -3,0 4 2 - - 10 -
21.03.2019 20:00:00 12,0 -4,0 9 5 SSW - 10 -
21.03.2019 19:00:00 13,3 -3,7 9 5 SW 1030,2 10 -
21.03.2019 18:00:00 15,0 -3,0 13 7 WSW - 10 -
21.03.2019 17:00:00 16,0 -3,0 9 5 W - 10 -
21.03.2019 16:00:00 15,6 -2,9 11 6 WSW 1030,5 10 0,0
21.03.2019 15:00:00 15,0 -2,0 8 4 SW - 10 -
21.03.2019 14:00:00 14,0 -3,0 8 4 S - 10 -
21.03.2019 13:00:00 13,8 -2,3 4 2 - 1033,0 10 -
21.03.2019 12:00:00 12,0 -3,0 9 5 WSW - 10 -
21.03.2019 11:00:00 11,0 -3,0 5 3 SW - 10 -
21.03.2019 10:00:00 10,4 -4,5 8 4 NNW 1034,6 10 0,0
21.03.2019 09:00:00 8,0 0,0 11 6 N - 10 -
21.03.2019 08:00:00 4,0 -1,0 9 5 N - 10 -
21.03.2019 07:00:00 -0,1 -3,5 9 5 N 1033,6 10 -
21.03.2019 06:00:00 -2,0 -5,0 9 5 N - 10 -
21.03.2019 05:00:00 0,0 -4,0 11 6 N - 10 -
21.03.2019 04:00:00 1,6 -3,8 13 7 N 1032,8 10 0,0
21.03.2019 03:00:00 1,0 -4,0 11 6 N - 10 -
21.03.2019 02:00:00 1,0 -4,0 11 6 NNE - 10 -
21.03.2019 01:00:00 3,0 -2,8 9 5 NE 1032,9 10 -
21.03.2019 00:00:00 3,0 -3,0 8 4 ENE - 10 -
20.03.2019 23:00:00 4,0 -3,0 5 3 E - 10 -
20.03.2019 22:00:00 6,0 -3,3 4 2 - 1031,5 10 0,0
20.03.2019 21:00:00 8,0 -3,0 8 4 SE - 10 -
20.03.2019 20:00:00 8,0 -3,0 8 4 SSE - 10 -
20.03.2019 19:00:00 11,0 -3,0 13 7 SSW 1029,4 10 -
20.03.2019 18:00:00 13,0 -3,0 15 8 SW - 10 -
20.03.2019 17:00:00 14,0 -3,0 11 6 SW - 10 -
20.03.2019 16:00:00 13,8 -3,0 9 5 SW 1028,9 10 0,0
20.03.2019 15:00:00 13,0 -3,0 9 5 ESE - 10 -
20.03.2019 14:00:00 13,0 -3,0 5 3 - - 10 -
20.03.2019 13:00:00 12,6 -1,6 8 4 SW 1031,0 10 -
20.03.2019 12:00:00 11,0 -3,0 5 3 N - 10 -
20.03.2019 11:00:00 11,0 -2,0 8 4 W - 10 -
20.03.2019 10:00:00 10,2 -1,7 8 4 NNW 1031,5 10 0,0
20.03.2019 09:00:00 8,0 0,0 9 5 N - 10 -
20.03.2019 08:00:00 4,0 0,0 9 5 N - 10 -
20.03.2019 07:00:00 1,1 -2,2 13 7 N 1029,9 10 -
20.03.2019 06:00:00 0,0 -3,0 11 6 N - 10 -
20.03.2019 05:00:00 1,0 -3,0 11 6 N - 10 -
20.03.2019 04:00:00 0,4 -3,3 11 6 N 1028,7 10 0,0
20.03.2019 03:00:00 1,0 -3,0 13 7 N - 10 -
20.03.2019 02:00:00 5,0 -2,0 11 6 ENE - 10 -
20.03.2019 01:00:00 2,7 -2,0 8 4 NE 1028,6 10 -
20.03.2019 00:00:00 3,0 -2,0 9 5 ENE - 10 -
19.03.2019 23:00:00 5,0 -2,0 5 3 ENE - 10 -
19.03.2019 22:00:00 4,5 -2,3 2 1 - 1026,5 10 0,0
19.03.2019 21:00:00 8,0 -2,0 8 4 SE - 10 -
19.03.2019 20:00:00 8,0 -2,0 9 5 SSE - 10 -
19.03.2019 19:00:00 8,8 -2,1 8 4 S 1024,0 10 -
19.03.2019 18:00:00 12,0 -3,0 11 6 SSE - 10 -
19.03.2019 17:00:00 13,0 -5,0 13 7 SSW - 10 -
19.03.2019 16:00:00 13,3 -4,6 13 7 S 1022,2 10 0,0
19.03.2019 15:00:00 13,0 -4,0 13 7 SSE - 10 -
19.03.2019 14:00:00 13,0 -5,0 9 5 ESE - 10 -
19.03.2019 13:00:00 12,9 -2,4 11 6 SSE 1023,0 10 -
19.03.2019 12:00:00 12,0 -5,0 13 7 SE - 10 -
19.03.2019 11:00:00 12,0 -8,0 9 5 - - 10 -
19.03.2019 10:00:00 9,7 -3,1 8 4 NNW 1022,9 10 0,0
19.03.2019 09:00:00 7,0 -1,0 13 7 NNW - 10 -
19.03.2019 08:00:00 4,0 2,0 9 5 N - 10 -
19.03.2019 07:00:00 0,1 -0,4 9 5 N 1021,5 9 -
19.03.2019 06:00:00 -1,0 -2,0 11 6 N - 10 -
19.03.2019 05:00:00 0,0 0,0 11 6 N - 10 -
19.03.2019 04:00:00 1,6 0,6 8 4 N 1021,2 10 0,0
19.03.2019 03:00:00 2,0 1,0 9 5 N - 10 -
19.03.2019 02:00:00 4,0 1,0 8 4 ENE - 10 -
19.03.2019 01:00:00 5,0 1,9 15 8 E 1020,7 10 -
19.03.2019 00:00:00 6,0 2,0 13 7 ESE - 10 -
18.03.2019 23:00:00 7,0 3,0 16 9 ESE - 10 -
18.03.2019 22:00:00 9,2 -9,7 22 12 NE 1019,8 10 0,0
18.03.2019 21:00:00 10,0 -10,0 26 14 NNE - 10 -
18.03.2019 20:00:00 11,0 -10,0 34 18 NE - 10 -
18.03.2019 19:00:00 12,0 -11,8 31 17 NE 1016,0 10 -
18.03.2019 18:00:00 14,0 -13,0 34 18 NE - 10 -
18.03.2019 17:00:00 15,0 -12,0 31 17 NNE - 10 -
18.03.2019 16:00:00 14,8 -12,5 37 20 NE 1014,3 10 0,0
18.03.2019 15:00:00 15,0 -11,0 35 19 NNE - 10 -
18.03.2019 14:00:00 15,0 -11,0 34 18 NNE - 10 -
18.03.2019 13:00:00 14,9 -11,9 35 19 NE 1014,6 10 -
18.03.2019 12:00:00 15,0 -9,0 26 14 NNE - 10 -
18.03.2019 11:00:00 14,0 -7,0 24 13 N - 10 -
18.03.2019 10:00:00 13,1 -7,6 18 10 NNE 1013,8 10 0,0
18.03.2019 09:00:00 11,0 -4,0 21 11 NNE - 10 -
18.03.2019 08:00:00 7,0 -1,0 13 7 N - 10 -
18.03.2019 07:00:00 2,6 -2,2 11 6 NNE 1011,6 10 -
18.03.2019 06:00:00 5,0 0,0 9 5 NNE - 10 -
18.03.2019 05:00:00 7,0 1,0 4 2 - - 10 -
18.03.2019 04:00:00 6,3 1,9 15 8 N 1009,6 10 0,0
18.03.2019 03:00:00 8,0 3,0 15 8 NNE - 10 -
18.03.2019 02:00:00 8,0 6,0 18 10 NNE - 10 -
18.03.2019 01:00:00 7,9 7,2 24 13 N 1010,2 10 -
18.03.2019 00:00:00 10,0 10,0 4 2 NNE - 3,5 -
17.03.2019 23:00:00 10,0 9,0 9 5 ESE - 10 -
17.03.2019 22:00:00 10,0 9,2 5 3 E 1010,8 10 0,0
17.03.2019 21:00:00 10,0 8,0 5 3 SSE - 10 -
17.03.2019 20:00:00 12,0 7,0 15 8 SSW - 10 -
17.03.2019 19:00:00 12,1 6,4 11 6 SSW 1011,6 10 -
17.03.2019 18:00:00 13,0 7,0 11 6 SSW - 10 -
17.03.2019 17:00:00 13,0 8,0 13 7 SSW - 10 -
17.03.2019 16:00:00 13,0 7,8 5 3 SW 1012,8 10 0,0
17.03.2019 15:00:00 13,0 8,0 5 3 S - 10 -
17.03.2019 14:00:00 13,0 8,0 5 3 SW - 10 -
17.03.2019 13:00:00 12,2 7,8 4 2 - 1015,2 10 -
17.03.2019 12:00:00 12,0 9,0 5 3 - - 10 -
17.03.2019 11:00:00 12,0 10,0 2 1 - - 10 -
17.03.2019 10:00:00 10,2 9,7 5 3 S 1016,3 5 0,0

tt = temperature
td = dewpoint
ff = wind speed
dd = wind direction
ppp = reduced air pressure
vv = visibility
rr = precipitation

Next stations